Cody, WY

6:45 PM MDT on May 22, 2017 (GMT -0600)
Yellowstone Regional

Weather History for KCOD - May, 2014

Change the Weather History Date:

Friday, May 9, 2014

  Actual Average Record
Temperature  
Mean Temperature 46 °F -  
Max Temperature 55 °F 63 °F 81 °F (1985)
Min Temperature 37 °F 37 °F 19 °F (2002)
Degree Days  
Heating Degree Days 19    
Moisture  
Dew Point 34 °F    
Average Humidity 63    
Maximum Humidity 87    
Minimum Humidity 44    
Precipitation  
Precipitation 0.00 in - - ()
Sea Level Pressure  
Sea Level Pressure 29.73 in    
Wind  
Wind Speed 7 mph (SSW)    
Max Wind Speed 25 mph    
Max Gust Speed 31 mph    
Visibility 10 miles    
Events      
Averages and records for this station are not official NWS values.
T = Trace of Precipitation, MM = Missing Value Source: NWS Daily Summary

Daily Weather History Graph

Daily Weather History Graph

Search for Another Location

Airport or City:

Trip Planner

Search our weather history database for the weather conditions in past years. The results will help you decide how hot, cold, wet, or windy it might be!

Date:

Astronomy

May. 09, 2014 Rise Set
Actual Time 5:55 AM MDT 8:30 PM MDT
Civil Twilight 5:22 AM MDT 9:03 PM MDT
Nautical Twilight 4:41 AM MDT 9:45 PM MDT
Astronomical Twilight 3:53 AM MDT 10:32 PM MDT
Moon 3:18 PM MDT (5/9) 3:12 AM MDT (5/9)
Length of Visible Light 15h 40m
Length of Day
14h 34m
Waxing Gibbous, 74% of the Moon is Illuminated
May 9
Waxing Gibbous
May 14
Full
May 21
Last Quarter
May 28
New
Jun 5
First Quarter

Hourly Weather History & Observations

Time (MDT) Temp. Windchill Dew Point Humidity Pressure Visibility Wind Dir Wind Speed Gust Speed Precip Events Conditions
12:15 AM 39.2 °F 35.9 °F 33.8 °F 81% 29.81 in 10.0 mi South 4.6 mph - N/A   Clear
12:35 AM 39.2 °F - 33.8 °F 81% 29.81 in 10.0 mi Calm Calm - N/A   Clear
12:55 AM 39.2 °F 37.0 °F 33.8 °F 81% 29.81 in 10.0 mi SW 3.5 mph - N/A   Partly Cloudy
1:15 AM 37.4 °F - 33.8 °F 87% 29.81 in 10.0 mi Calm Calm - N/A   Clear
1:35 AM 37.4 °F - 33.8 °F 87% 29.80 in 10.0 mi Calm Calm - N/A   Clear
1:55 AM 39.2 °F 35.0 °F 33.8 °F 81% 29.79 in 10.0 mi SSW 5.8 mph - N/A   Clear
2:15 AM 39.2 °F 33.0 °F 33.8 °F 81% 29.78 in 10.0 mi South 9.2 mph - N/A   Clear
2:35 AM 39.2 °F 35.9 °F 33.8 °F 81% 29.78 in 10.0 mi WSW 4.6 mph - N/A   Clear
3:15 AM 46.4 °F 41.5 °F 30.2 °F 53% 29.77 in 10.0 mi WSW 10.4 mph - N/A   Clear
3:35 AM 46.4 °F 41.1 °F 30.2 °F 53% 29.76 in 10.0 mi South 11.5 mph - N/A   Clear
3:55 AM 44.6 °F 39.7 °F 32.0 °F 61% 29.75 in 10.0 mi SSW 9.2 mph - N/A   Scattered Clouds
4:15 AM 46.4 °F 41.9 °F 32.0 °F 57% 29.74 in 10.0 mi SW 9.2 mph - N/A   Mostly Cloudy
4:35 AM 48.2 °F - 32.0 °F 54% 29.74 in 10.0 mi WSW 10.4 mph - N/A   Mostly Cloudy
4:55 AM 48.2 °F - 30.2 °F 50% 29.74 in 10.0 mi SW 8.1 mph - N/A   Partly Cloudy
5:15 AM 46.4 °F 41.1 °F 30.2 °F 53% 29.74 in 10.0 mi SSW 11.5 mph - N/A   Clear
5:35 AM 44.6 °F 37.8 °F 32.0 °F 61% 29.74 in 10.0 mi South 15.0 mph - N/A   Clear
5:55 AM 46.4 °F 40.7 °F 30.2 °F 53% 29.74 in 10.0 mi South 12.7 mph - N/A   Scattered Clouds
6:15 AM 44.6 °F 39.7 °F 32.0 °F 61% 29.74 in 10.0 mi South 9.2 mph - N/A   Mostly Cloudy
6:35 AM 42.8 °F 36.6 °F 30.2 °F 61% 29.73 in 10.0 mi South 11.5 mph - N/A   Scattered Clouds
6:55 AM 44.6 °F 39.2 °F 30.2 °F 57% 29.73 in 10.0 mi South 10.4 mph - N/A   Clear
7:15 AM 44.6 °F 40.2 °F 30.2 °F 57% 29.73 in 10.0 mi SSW 8.1 mph - N/A   Scattered Clouds
7:35 AM 44.6 °F 42.2 °F 32.0 °F 61% 29.73 in 10.0 mi SSW 4.6 mph - N/A   Mostly Cloudy
7:55 AM 44.6 °F 41.4 °F 33.8 °F 66% 29.73 in 10.0 mi SSE 5.8 mph - N/A   Scattered Clouds
8:15 AM 46.4 °F 43.5 °F 30.2 °F 53% 29.73 in 10.0 mi South 5.8 mph - N/A   Mostly Cloudy
8:35 AM 44.6 °F 43.1 °F 33.8 °F 66% 29.73 in 10.0 mi SSE 3.5 mph - N/A   Overcast
8:55 AM 46.4 °F 45.2 °F 33.8 °F 62% 29.72 in 10.0 mi South 3.5 mph - N/A   Overcast
9:15 AM 46.4 °F 43.5 °F 33.8 °F 62% 29.72 in 10.0 mi SE 5.8 mph - N/A   Overcast
9:35 AM 46.4 °F 43.5 °F 32.0 °F 57% 29.71 in 10.0 mi South 5.8 mph - N/A   Overcast
9:55 AM 48.2 °F - 30.2 °F 50% 29.70 in 10.0 mi ESE 4.6 mph - N/A   Overcast
10:15 AM 48.2 °F - 30.2 °F 50% 29.70 in 10.0 mi ESE 5.8 mph - N/A   Scattered Clouds
10:35 AM 48.2 °F - 32.0 °F 54% 29.69 in 10.0 mi SSE 8.1 mph - N/A   Clear
10:55 AM 50.0 °F - 33.8 °F 54% 29.69 in 10.0 mi SE 6.9 mph - N/A   Partly Cloudy
11:15 AM 51.8 °F - 33.8 °F 50% 29.68 in 10.0 mi SSE 8.1 mph - N/A   Partly Cloudy
11:35 AM 51.8 °F - 33.8 °F 50% 29.68 in 10.0 mi SSE 8.1 mph - N/A   Partly Cloudy
11:55 AM 51.8 °F - 33.8 °F 50% 29.67 in 10.0 mi ESE 8.1 mph - N/A   Clear
12:15 PM 53.6 °F - 33.8 °F 47% 29.66 in 10.0 mi SE 5.8 mph - N/A   Scattered Clouds
12:35 PM 53.6 °F - 35.6 °F 51% 29.66 in 10.0 mi SE 8.1 mph - N/A   Mostly Cloudy
12:55 PM 53.6 °F - 35.6 °F 51% 29.66 in 10.0 mi SSE 8.1 mph - N/A   Overcast
1:15 PM 51.8 °F - 37.4 °F 58% 29.67 in 10.0 mi SSW 13.8 mph 17.3 mph N/A   Overcast
1:35 PM 51.8 °F - 37.4 °F 58% 29.66 in 10.0 mi SW 4.6 mph - N/A   Overcast
1:55 PM 53.6 °F - 39.2 °F 58% 29.66 in 10.0 mi SSE 9.2 mph - N/A   Overcast
2:15 PM 55.4 °F - 39.2 °F 54% 29.66 in 10.0 mi SW 5.8 mph - N/A   Overcast
2:35 PM 55.4 °F - 37.4 °F 51% 29.65 in 10.0 mi West 12.7 mph - N/A   Mostly Cloudy
2:55 PM 53.6 °F - 35.6 °F 51% 29.66 in 10.0 mi SW 10.4 mph - N/A   Mostly Cloudy
3:15 PM 53.6 °F - 35.6 °F 51% 29.65 in 10.0 mi West 9.2 mph 26.5 mph N/A   Overcast
3:35 PM 53.6 °F - 35.6 °F 51% 29.64 in 10.0 mi West 25.3 mph 31.1 mph N/A   Overcast
3:55 PM 53.6 °F - 33.8 °F 47% 29.64 in 10.0 mi West 16.1 mph 28.8 mph N/A   Mostly Cloudy
4:15 PM 53.6 °F - 33.8 °F 47% 29.65 in 10.0 mi West 17.3 mph 21.9 mph N/A   Overcast
4:35 PM 53.6 °F - 32.0 °F 44% 29.66 in 10.0 mi West 16.1 mph 25.3 mph N/A   Overcast
4:55 PM 53.6 °F - 33.8 °F 47% 29.67 in 10.0 mi West 12.7 mph 20.7 mph N/A   Overcast
5:15 PM 53.6 °F - 33.8 °F 47% 29.67 in 10.0 mi West 12.7 mph 19.6 mph N/A   Overcast
5:35 PM 51.8 °F - 33.8 °F 50% 29.70 in 10.0 mi WSW 9.2 mph 17.3 mph N/A   Overcast
5:55 PM 51.8 °F - 32.0 °F 47% 29.72 in 10.0 mi NNW 13.8 mph 29.9 mph N/A   Mostly Cloudy
6:15 PM 46.4 °F 40.1 °F 39.2 °F 76% 29.73 in 10.0 mi NNE 15.0 mph - N/A   Mostly Cloudy
6:35 PM 46.4 °F 41.1 °F 39.2 °F 76% 29.74 in 10.0 mi NNE 11.5 mph - N/A   Mostly Cloudy
6:55 PM 46.4 °F 44.3 °F 37.4 °F 71% 29.74 in 10.0 mi NNE 4.6 mph - N/A   Overcast
7:15 PM 46.4 °F 41.1 °F 37.4 °F 71% 29.74 in 10.0 mi NNE 11.5 mph 16.1 mph N/A   Mostly Cloudy
7:35 PM 44.6 °F 39.2 °F 39.2 °F 81% 29.75 in 10.0 mi NNE 10.4 mph 17.3 mph N/A   Scattered Clouds
7:55 PM 42.8 °F 37.5 °F 39.2 °F 87% 29.75 in 10.0 mi NNE 9.2 mph - N/A   Scattered Clouds
8:15 PM 42.8 °F 38.6 °F 37.4 °F 81% 29.76 in 10.0 mi NE 6.9 mph - N/A   Clear
8:35 PM 42.8 °F - 37.4 °F 81% 29.77 in 10.0 mi Calm Calm - N/A   Clear
8:55 PM 42.8 °F - 37.4 °F 81% 29.77 in 10.0 mi Calm Calm - N/A   Partly Cloudy
9:15 PM 44.6 °F - 35.6 °F 71% 29.78 in 10.0 mi Calm Calm - N/A   Partly Cloudy
9:35 PM 46.4 °F 41.5 °F 33.8 °F 62% 29.79 in 10.0 mi WNW 10.4 mph 20.7 mph N/A   Mostly Cloudy
9:55 PM 42.8 °F 40.1 °F 37.4 °F 81% 29.80 in 10.0 mi North 4.6 mph - N/A   Overcast
10:15 PM 42.8 °F 41.1 °F 37.4 °F 81% 29.81 in 10.0 mi WSW 3.5 mph - N/A   Overcast
10:35 PM 42.8 °F - 37.4 °F 81% 29.81 in 10.0 mi Calm Calm - N/A   Overcast
10:55 PM 42.8 °F - 37.4 °F 81% 29.81 in 10.0 mi Calm Calm - N/A   Overcast
11:15 PM 44.6 °F 43.1 °F 37.4 °F 76% 29.81 in 10.0 mi NNW 3.5 mph - N/A   Overcast
11:35 PM 42.8 °F 38.6 °F 37.4 °F 81% 29.81 in 10.0 mi North 6.9 mph - N/A   Overcast
11:55 PM 42.8 °F 39.3 °F 37.4 °F 81% 29.82 in 10.0 mi WSW 5.8 mph - N/A   Overcast